This is the latest recevied weather packets stored in our database for station/object WD4IXD. If no packets are shown the sender has not sent any weather packets the latest 10 day(s).
| Time | Temp. | Humidity | Pressure | Rain* | Wind** | Luminosity | Snow |
|---|---|---|---|---|---|---|---|
| 1777414504 | 16.67° C | 37% | 1016.7 hPa | 0 mm | - | 722 W/m² | - |
| 1777414215 | 16.11° C | 38% | 1016.7 hPa | 0 mm | - | 496 W/m² | - |
| 1777413904 | 15.56° C | 37% | 1016.7 hPa | 0 mm | - | 352 W/m² | - |
| 1777413615 | 15.56° C | 38% | 1016.7 hPa | 0 mm | - | 497 W/m² | - |
| 1777413304 | 15.56° C | 39% | 1016.7 hPa | 0 mm | - | 870 W/m² | - |
| 1777413015 | 16.11° C | 38% | 1016.8 hPa | 0 mm | - | 253 W/m² | - |
| 1777412704 | 15.56° C | 38% | 1016.9 hPa | 0 mm | - | 656 W/m² | - |
| 1777412415 | 15.56° C | 38% | 1016.9 hPa | 0 mm | - | 397 W/m² | - |
| 1777412104 | 15.56° C | 39% | 1016.8 hPa | 0 mm | - | 580 W/m² | - |
| 1777411815 | 16.11° C | 39% | 1017 hPa | 0 mm | - | 327 W/m² | - |
| 1777411504 | 16.11° C | 39% | 1017 hPa | 0 mm | - | 877 W/m² | - |
| 1777411215 | 15.56° C | 40% | 1017 hPa | 0 mm | - | 1039 W/m² | - |
| 1777410904 | 15.56° C | 40% | 1017 hPa | 0 mm | - | 403 W/m² | - |
| 1777410615 | 15.56° C | 41% | 1017.1 hPa | 0 mm | - | 434 W/m² | - |
| 1777410304 | 15° C | 42% | 1017.1 hPa | 0 mm | - | 735 W/m² | - |
| 1777410015 | 15° C | 43% | 1017.1 hPa | 0 mm | - | 828 W/m² | - |
| 1777409705 | 14.44° C | 42% | 1017.1 hPa | 0 mm | - | 557 W/m² | - |
| 1777409416 | 15° C | 41% | 1017.2 hPa | 0 mm | - | 362 W/m² | - |
| 1777409104 | 15.56° C | 42% | 1017.3 hPa | 0 mm | - | 297 W/m² | - |
| 1777408816 | 15° C | 42% | 1017.2 hPa | 0 mm | - | 376 W/m² | - |
| 1777408505 | 15° C | 43% | 1017.1 hPa | 0 mm | - | 515 W/m² | - |
| 1777408215 | 15° C | 42% | 1017.2 hPa | 0 mm | - | 362 W/m² | - |
| 1777407904 | 15° C | 43% | 1017.1 hPa | 0 mm | - | 357 W/m² | - |
| 1777407615 | 15° C | 43% | 1017.1 hPa | 0 mm | - | 432 W/m² | - |
| 1777407304 | 15° C | 42% | 1017 hPa | 0 mm | - | 432 W/m² | - |
* Rain latest hour (hover to see other rain measurements)
** Current wind speed in m/s (hover to see current wind gust speed)